Des Moines, IA

8:28 AM CDT on July 26, 2016 (GMT -0500)
Des Moines International

Weather History for KDSM - August, 2013

Change the Weather History Date:

Tuesday, August 27, 2013

  Actual Average Record
Temperature  
Mean Temperature 88 °F 73 °F  
Max Temperature 99 °F 83 °F 99 °F (1955)
Min Temperature 77 °F 63 °F 45 °F (1986)
Degree Days  
Heating Degree Days 0 0  
Month to date heating degree days 0 0  
Since 1 June heating degree days 19 18  
Since 1 July heating degree days 0 1  
Cooling Degree Days 23 8  
Month to date cooling degree days 309 264  
Year to date cooling degree days 1017 910  
Since 1 June cooling degree days 915 834  
Growing Degree Days 38 (Base 50)    
Moisture  
Dew Point 68 °F    
Average Humidity 57    
Maximum Humidity 74    
Minimum Humidity 39    
Precipitation  
Precipitation 0.00 in 0.13 in 6.18 in (1975)
Month to date precipitation 0.98 3.65  
Year to date precipitation 23.54 26.24  
Snow  
Snow 0.00 in 0.00 in - ()
Month to date snowfall 0.0 0.0  
Since 1 June snowfall 0.0 0.0  
Since 1 July snowfall 0.0 0.0  
Snow Depth 0.00 in    
Sea Level Pressure  
Sea Level Pressure 29.90 in    
Wind  
Wind Speed 14 mph (SW)    
Max Wind Speed 23 mph    
Max Gust Speed 30 mph    
Visibility 10 miles    
Events      
T = Trace of Precipitation, MM = Missing Value Source: NWS Daily Summary

Daily Weather History Graph

Daily Weather History Graph

Search for Another Location

Airport or City:

Trip Planner

Search our weather history database for the weather conditions in past years. The results will help you decide how hot, cold, wet, or windy it might be!

Date:

Astronomy

Aug. 27, 2013 Rise Set
Actual Time 6:35 AM CDT 7:55 PM CDT
Civil Twilight 6:07 AM CDT 8:24 PM CDT
Nautical Twilight 5:32 AM CDT 8:58 PM CDT
Astronomical Twilight 4:55 AM CDT 9:34 PM CDT
Moon 11:43 PM CDT (8/27) 1:40 PM CDT (8/27)
Length of Visible Light 14h 17m
Length of Day
13h 19m
Waning Gibbous, 57% of the Moon is Illuminated
Aug 27
Waning Gibbous
Aug 28
Last Quarter
Sep 5
New
Sep 12
First Quarter
Sep 19
Full

Hourly Weather History & Observations

Time (CDT) Temp. Heat Index Dew Point Humidity Pressure Visibility Wind Dir Wind Speed Gust Speed Precip Events Conditions
12:54 AM 82.0 °F 84.9 °F 68.0 °F 62% 29.94 in 10.0 mi SW 12.7 mph - N/A   Partly Cloudy
1:54 AM 81.0 °F 84.1 °F 69.1 °F 67% 29.94 in 10.0 mi SW 10.4 mph - N/A   Clear
2:54 AM 81.0 °F 84.1 °F 69.1 °F 67% 29.93 in 10.0 mi SW 13.8 mph - N/A   Clear
3:54 AM 80.1 °F 82.9 °F 69.1 °F 69% 29.93 in 10.0 mi SW 13.8 mph - N/A   Clear
4:54 AM 79.0 °F - 68.0 °F 69% 29.92 in 10.0 mi SW 12.7 mph - N/A   Clear
5:54 AM 78.1 °F - 68.0 °F 71% 29.93 in 10.0 mi SW 9.2 mph - N/A   Partly Cloudy
6:54 AM 77.0 °F - 68.0 °F 74% 29.94 in 10.0 mi SW 10.4 mph - N/A   Partly Cloudy
7:54 AM 79.0 °F - 68.0 °F 69% 29.94 in 10.0 mi SW 12.7 mph - N/A   Partly Cloudy
8:54 AM 82.9 °F 85.8 °F 68.0 °F 60% 29.93 in 10.0 mi WSW 17.3 mph - N/A   Partly Cloudy
9:54 AM 87.1 °F 89.9 °F 66.9 °F 51% 29.92 in 10.0 mi WSW 21.9 mph 26.5 mph N/A   Partly Cloudy
10:54 AM 91.0 °F 94.3 °F 66.9 °F 45% 29.91 in 10.0 mi SW 20.7 mph - N/A   Partly Cloudy
11:54 AM 93.0 °F 96.4 °F 66.9 °F 42% 29.91 in 10.0 mi SW 20.7 mph 28.8 mph N/A   Partly Cloudy
12:54 PM 95.0 °F 99.5 °F 68.0 °F 41% 29.89 in 10.0 mi SW 19.6 mph - N/A   Partly Cloudy
1:54 PM 97.0 °F 102.2 °F 68.0 °F 39% 29.88 in 10.0 mi SW 16.1 mph - N/A   Partly Cloudy
2:54 PM 97.0 °F 102.2 °F 68.0 °F 39% 29.86 in 10.0 mi SW 18.4 mph - N/A   Partly Cloudy
3:54 PM 98.1 °F 104.4 °F 69.1 °F 39% 29.86 in 10.0 mi SW 19.6 mph 26.5 mph N/A   Partly Cloudy
4:54 PM 97.0 °F 102.8 °F 69.1 °F 40% 29.85 in 10.0 mi WSW 15.0 mph 24.2 mph N/A   Partly Cloudy
5:54 PM 96.1 °F 101.0 °F 68.0 °F 40% 29.85 in 10.0 mi WSW 15.0 mph - N/A   Partly Cloudy
6:54 PM 93.0 °F 97.4 °F 68.0 °F 44% 29.86 in 10.0 mi WSW 15.0 mph - N/A   Partly Cloudy
7:54 PM 89.1 °F 93.7 °F 69.1 °F 52% 29.87 in 10.0 mi WSW 11.5 mph - N/A   Partly Cloudy
8:54 PM 87.1 °F 90.6 °F 68.0 °F 53% 29.89 in 10.0 mi SW 6.9 mph - N/A   Clear
9:54 PM 84.9 °F 88.2 °F 68.0 °F 57% 29.89 in 10.0 mi SW 9.2 mph - N/A   Clear
10:54 PM 82.9 °F 85.8 °F 68.0 °F 60% 29.89 in 10.0 mi SW 9.2 mph - N/A   Clear
11:54 PM 82.0 °F 84.9 °F 68.0 °F 62% 29.90 in 10.0 mi SW 10.4 mph - N/A   Clear